Weather History for KIAB - August, 2013

Change the Weather History Date:

Monday, August 19, 2013

  Actual Average Record
Temperature  
Mean Temperature 76 °F -  
Max Temperature 85 °F 88 °F 107 °F (2011)
Min Temperature 66 °F 67 °F 58 °F (2012)
Cooling Degree Days 10    
Growing Degree Days 26 (Base 50)    
Moisture  
Dew Point 68 °F    
Average Humidity 78    
Maximum Humidity 98    
Minimum Humidity 57    
Precipitation  
Precipitation 0.00 in - - ()
Sea Level Pressure  
Sea Level Pressure 30.04 in    
Wind  
Wind Speed 9 mph (SE)    
Max Wind Speed 16 mph    
Max Gust Speed 20 mph    
Visibility 10 miles    
Events      
Averages and records for this station are not official NWS values.
T = Trace of Precipitation, MM = Missing Value Source: NWS Daily Summary

Daily Weather History Graph

Daily Weather History Graph

Search for Another Location

Airport or City:

Trip Planner

Search our weather history database for the weather conditions in past years. The results will help you decide how hot, cold, wet, or windy it might be!

Date:

Astronomy

Aug. 19, 2013 Rise Set
Actual Time 6:48 AM CDT 8:16 PM CDT
Civil Twilight 6:20 AM CDT 8:43 PM CDT
Nautical Twilight 5:47 AM CDT 9:16 PM CDT
Astronomical Twilight 5:12 AM CDT 9:51 PM CDT
Moon 7:08 PM CDT (8/19) 5:09 AM CDT (8/19)
Length of Visible Light 14h 22m
Length of Day
13h 27m
Waxing Gibbous, 97% of the Moon is Illuminated
Aug 19
Waxing Gibbous
Aug 20
Full
Aug 28
Last Quarter
Sep 5
New
Sep 12
First Quarter

Hourly Weather History & Observations

Time (CDT) Temp. Heat Index Dew Point Humidity Pressure Visibility Wind Dir Wind Speed Gust Speed Precip Events Conditions
12:58 AM 72.1 °F - 65.5 °F 79% 30.09 in 10.0 mi ESE 8.1 mph - N/A   Overcast
1:58 AM 70.7 °F - 65.7 °F 84% 30.08 in 10.0 mi SE 8.1 mph - N/A   Clear
2:58 AM 69.4 °F - 65.8 °F 88% 30.06 in 10.0 mi ESE 8.1 mph - N/A   Clear
3:58 AM 67.8 °F - 65.8 °F 93% 30.06 in 10.0 mi SE 4.6 mph - N/A   Clear
4:58 AM 66.6 °F - 66.0 °F 98% 30.05 in 10.0 mi SE 6.9 mph - N/A   Clear
5:58 AM 66.4 °F - 65.5 °F 97% 30.06 in 10.0 mi SE 5.8 mph - N/A   Clear
6:58 AM 66.7 °F - 65.3 °F 95% 30.06 in 10.0 mi SE 8.1 mph - N/A   Clear
7:58 AM 68.4 °F - 65.1 °F 89% 30.06 in 10.0 mi SE 9.2 mph - N/A   Clear
8:58 AM 70.7 °F - 66.6 °F 87% 30.08 in 10.0 mi SE 8.1 mph - N/A   Scattered Clouds
9:58 AM 75.2 °F - 67.1 °F 76% 30.08 in 10.0 mi SE 15.0 mph - N/A   Clear
10:58 AM 78.3 °F - 67.5 °F 69% 30.07 in 10.0 mi SE 16.1 mph - N/A   Clear
11:56 AM 78.8 °F - 68.0 °F 69% 30.10 in 10.0 mi SE 12.7 mph - N/A   Scattered Clouds
12:56 PM 80.6 °F 83.9 °F 69.8 °F 70% 30.10 in 10.0 mi SE 12.7 mph - N/A   Partly Cloudy
1:58 PM 82.9 °F 87.2 °F 70.5 °F 66% 30.05 in 10.0 mi South 11.5 mph 18.4 mph N/A   Clear
2:58 PM 84.2 °F 87.9 °F 68.7 °F 60% 30.04 in 10.0 mi SSE 12.7 mph 19.6 mph N/A   Clear
3:58 PM 84.6 °F 87.9 °F 68.4 °F 58% 30.02 in 10.0 mi South 12.7 mph - N/A   Clear
4:58 PM 85.1 °F 88.5 °F 68.5 °F 57% 30.01 in 10.0 mi SSE 13.8 mph - N/A   Clear
5:58 PM 84.4 °F 87.3 °F 67.6 °F 57% 29.99 in 10.0 mi SSE 11.5 mph - N/A   Clear
6:58 PM 82.8 °F 86.0 °F 68.5 °F 62% 29.98 in 10.0 mi SE 13.8 mph - N/A   Clear
7:58 PM 79.9 °F - 68.4 °F 68% 29.99 in 10.0 mi SE 8.1 mph - N/A   Clear
8:58 PM 76.5 °F - 68.5 °F 76% 29.99 in 10.0 mi SE 6.9 mph - N/A   Clear
9:58 PM 74.3 °F - 69.4 °F 85% 30.01 in 10.0 mi SE 8.1 mph - N/A   Clear
10:58 PM 73.2 °F - 70.2 °F 90% 30.00 in 10.0 mi SE 9.2 mph - N/A   Clear
11:58 PM 72.3 °F - 69.6 °F 91% 30.04 in 10.0 mi SE 8.1 mph - N/A   Clear